{"data":{"norad_id":63729,"intl_designator":"2025-088F","name":"KUIPER-00013","alt_names":[],"object_type":"PAYLOAD","status":"ACTIVE","operator":null,"country":"US","launch_date":"2025-04-28","launch_site_code":"AFETR","launch_vehicle":null,"mission":null,"orbit_class":"UNKNOWN","rcs_meters":null,"size_class":null,"mass_kg":null,"dimensions":null,"purposes":[],"wikipedia_slug":null,"has_3d_model":false,"image_url":null,"decayed_at":null,"tle_current":{"epoch":"2026-09-21T16:27:55.261728Z","epoch_age_seconds":102242,"freshness":"FRESH","line1":"1 63729U 25088F   26264.68605627  .00000577  00000+0  10464-3 0  9996","line2":"2 63729  51.9027 321.4265 0000343  83.1028 276.9974 14.79928966 76590","mean_motion":14.79928966,"eccentricity":3.43e-5,"inclination_deg":51.9027,"raan_deg":321.4265,"arg_perigee_deg":83.1028,"mean_anomaly_deg":276.9974,"bstar":0.00010464,"rev_number":7659,"period_min":97.301967397265,"perigee_km":629.30799993432,"apogee_km":629.78872715026,"semimajor_km":7007.6853635423,"source":"CELESTRAK","updated_at":"2026-09-22T09:00:29.316300Z"}}}